Tracking 19149 objects as of 21-Apr-2018
HD Live streaming from Space Station
objects crossing your sky now

FENGYUN 1C DEB

Track FENGYUN 1C DEB now!
10-day predictions


NORAD ID: 31254
Int'l Code: 1999-025BML
Perigee: 680.6 km
Apogee: 919.7 km
Inclination: 98.8 °
Period: 100.7 minutes
Semi major axis: 7171 km
RCS: 0.0099 m2 (small)
Launch date: May 10, 1999
Source: People's Republic of China (PRC)
Launch site: Taiyaun Space Center, China (TSC)

Note: This is SATELLITE DEBRIS
aabbcc
Your satellite tracking list
Your tracking list is empty




NASA's NSSDC Master Catalog

Two Line Element Set (TLE):
1 31254U 99025BML 18110.04077778  .00000217  00000-0  88890-4 0  9998
2 31254  98.8107 133.8538 0166707 141.1434 275.3666 14.29615400575875
Source of the keplerian elements: AFSPC